Regional Weather Roundup
Issued by NWS Cleveland, OH

Home | Current Version | Previous Version | Graphics & Text | Print | Product List | Glossary On
Versions: 1 2 3 4 5 6 7 8 9 10 11 12 13 14 15 16 17 18 19 20 21 22 23 24 25 26 27 28 29 30 31 32 33 34 35 36 37 38 39 40 41 42 43 44 45 46 47 48 49 50
000
ASUS41 KCLE 172110
RWRCLE
OHIO REGIONAL WEATHER ROUNDUP
NATIONAL WEATHER SERVICE WILMINGTON, OH
400 PM EST TUE JAN 17 2017

NOTE: "FAIR" INDICATES FEW OR NO CLOUDS BELOW 12,000 FEET WITH NO
SIGNIFICANT WEATHER AND/OR OBSTRUCTIONS TO VISIBILITY.

OHZ001>008-015>018-024>027-034-035-043-044-172200-
   NORTHWEST OHIO

CITY           SKY/WX    TMP DP  RH WIND       PRES   REMARKS
DEFIANCE       CLOUDY    46  42  86 SW10G22   29.87R FOG
FINDLAY        CLOUDY    51  42  71 SW17      29.85R
TOLEDO EXPRESS CLOUDY    47  45  93 W21G28    29.83R
TOLEDO EXEC    CLOUDY    49  45  86 W17       29.83R
LIMA           CLOUDY    49  44  83 SW17      29.88R
$$

OHZ009>014-019>023-028>033-038-089-172200-
   NORTHEAST OHIO

CITY           SKY/WX    TMP DP  RH WIND       PRES   REMARKS
CLE-HOPKINS    CLOUDY    56  45  66 W18G24    29.84R
CLE-LAKEFRONT  CLOUDY    44  40  85 SW10      29.81R
CUY CO. ARPT   CLOUDY    52 N/A N/A W12       29.81R
LORAIN-ELYRIA  CLOUDY    53  44  71 W15G25    29.82R
ASHTABULA      NOT AVBL
AKRON-CANTON   CLOUDY    60  47  61 W16G22    29.83R
WOOSTER        CLOUDY    54  46  74 W17       29.84R
MANSFIELD      PTSUNNY   54  47  77 W12G21    29.84R
YOUNGSTOWN     CLOUDY    57  49  74 W9        29.82R
$$

OHZ042-051>053-060>062-070>072-077>081-172200-
  SOUTHWEST OHIO

CITY           SKY/WX    TMP DP  RH WIND       PRES   REMARKS
CINC-COVINGTON PTSUNNY   54  47  77 W14       29.92R
CINC-LUNKEN    PTSUNNY   57  48  72 W14       29.93R
HAMILTON       PTSUNNY   55  46  71 W12       29.93R
DAYTON         CLOUDY    50  45  83 W17       29.90R
WRIGHT-PAT AFB CLOUDY    55  47  75 W15       29.89R
DAYTON GENERAL CLOUDY    53  44  71 SW15G23   29.90R
WILMINGTON     FAIR      56  47  71 W20       29.89R
$$

OHZ036-037-039>041-045>050-054>059-063>069-073>076-082>088-172200-
  CENTRAL AND SOUTHEAST OHIO

CITY           SKY/WX    TMP DP  RH WIND       PRES   REMARKS
COLUMBUS       FAIR      60  48  64 W15       29.87R
OSU AIRPORT    PTSUNNY   58  49  72 SW13      29.86R
BOLTON FIELD   PTSUNNY   57  48  72 W10G23    29.88R
RICKENBACK AFB   N/A     57  50  78 W10G18    29.87R
NEWARK         FAIR      59  48  67 W15G26    29.85S
MARION         CLOUDY    55  47  74 W12       29.86R
LANCASTER      CLOUDY    59  50  72 W9        29.89R
ZANESVILLE     FAIR      61  51  70 W16G22    29.85R
NEW PHILLY     CLOUDY    60  50  69 W13G20    29.85R
$$



USA.gov is the U.S. government's official web portal to all federal, state and local government web resources and services.